Regional Weather Roundup
Issued by NWS

Home | Current Version | Previous Version | Graphics & Text | Print | Product List | Glossary On
Versions: 1 2 3 4 5 6 7 8 9 10 11 12 13 14 15 16 17 18 19 20 21 22 23 24 25 26 27 28 29 30 31 32 33 34 35 36 37 38 39 40 41 42 43 44 45 46 47 48 49 50
728
ASUS43 KBIS 182002
RWRND

NORTH DAKOTA REGIONAL WEATHER ROUNDUP
NATIONAL WEATHER SERVICE BISMARCK ND
200 PM CST SAT NOV 18 2017

NOTE: "FAIR" INDICATES FEW OR NO CLOUDS BELOW 12,000 FEET WITH NO
SIGNIFICANT WEATHER AND/OR OBSTRUCTIONS TO VISIBILITY.


NDZ001>003-009>011-017-182100-
NORTHWEST NORTH DAKOTA

CITY           SKY/WX    TMP DP  RH WIND       PRES   REMARKS
WILLISTON      SUNNY     31  14  49 W10       30.08F
MINOT          SUNNY     26  10  50 W15       30.04F WCI  14
$$

NDZ018>021-031>035-040>046-182100-
SOUTHWEST NORTH DAKOTA

CITY           SKY/WX    TMP DP  RH WIND       PRES   REMARKS
BISMARCK       SUNNY     34  16  47 NW12G23   30.10F
DICKINSON      SUNNY     31  17  56 W15       30.05S
GARRISON         N/A     26  14  60 W17       30.06F WCI  13
HETTINGER ARPT PTSUNNY   35  17  47 W21       30.08F
$$

NDZ004>008-012>016-024-026-027-054-182100-
NORTHEAST NORTH DAKOTA

CITY           SKY/WX    TMP DP  RH WIND       PRES   REMARKS
GRAND FORKS    MOSUNNY   20  10  65 NW17      30.03S WCI   5
GRND FRKS AFB  SUNNY     20   8  59 NW16      30.03R WCI   5
DEVILS LAKE    SUNNY     17   8  67 NW23      30.02F WCI  -1
$$

NDZ022-023-025-028>030-036>039-047>053-182100-
SOUTHEAST NORTH DAKOTA

CITY           SKY/WX    TMP DP  RH WIND       PRES   REMARKS
FARGO          SUNNY     25  11  55 NW21G28   30.03S WCI  11
JAMESTOWN      MOSUNNY   23   9  55 NW23      30.04S WCI   7
$$





USA.gov is the U.S. government's official web portal to all federal, state and local government web resources and services.